Regional Weather Roundup
Issued by NWS

Home | Current Version | Previous Version | Graphics & Text | Print | Product List | Glossary On
Versions: 1 2 3 4 5 6 7 8 9 10 11 12 13 14 15 16 17 18 19 20 21 22 23 24 25 26 27 28 29 30 31 32 33 34 35 36 37 38 39 40 41 42 43 44 45 46 47 48 49 50
000
ASUS43 KLOT 250108
RWRIL

ILLINOIS REGIONAL WEATHER ROUNDUP
NATIONAL WEATHER SERVICE CHICAGO/ROMEOVILLE IL
700 PM CST TUE JAN 24 2017

NOTE: "FAIR" INDICATES FEW OR NO CLOUDS BELOW 12,000 FEET WITH NO
SIGNIFICANT WEATHER AND/OR OBSTRUCTIONS TO VISIBILITY.

* THESE STATIONS ARE NOT UNDER NWS QUALITY CONTROL. THEY ALSO MAY NOT
  REPORT WEATHER SUCH AS PRECIPITATION OR FOG.

ILZ001-002-007-009-015-016-024-250200-
NORTHWEST ILLINOIS

CITY           SKY/WX    TMP DP  RH WIND       PRES   REMARKS
MOLINE         CLOUDY    37  33  85 E13       29.70R WCI  29
STERLING*      CLOUDY    36  33  89 E15       29.73R WCI  27
SAVANNA*       CLOUDY    35  32  88 E7        29.74R WCI  29
$$

ILZ003-004-008-010-011-017-018-250200-
NORTH CENTRAL ILLINOIS

CITY           SKY/WX    TMP DP  RH WIND       PRES   REMARKS
ROCKFORD       FLURRIES  35  31  85 E14       29.75F WCI  26
FREEPORT*      CLOUDY    33  32  98 E15       29.73F FOG     WCI  22
ROCHELLE*      CLOUDY    34  32  94 E12G17    29.74F WCI  25
DE KALB*       LGT RAIN  34  32  94 E8        29.77F WCI  27
PERU*          CLOUDY    37  32  83 E14G20    29.73S WCI  28
$$

ILZ005-006-012>014-019>023-250200-
NORTHEAST ILLINOIS

CITY           SKY/WX    TMP DP  RH WIND       PRES   REMARKS
CHICAGO-OHARE  CLOUDY    36  31  82 E8        29.81R WCI  30
CHICAGO-MIDWAY CLOUDY    36  30  79 E8        29.82S WCI  30
AURORA         LGT RAIN  37  32  82 E9        29.77F WCI  30
LANSING*       CLOUDY    36  34  93 E7        29.80F WCI  30
JOLIET*        CLOUDY    38  34  85 E9        29.79F WCI  32
WAUKEGAN       CLOUDY    35  32  88 SE3       29.82S
DUPAGE AIRPORT CLOUDY    36  30  79 E9        29.77F WCI  29
KANKAKEE*      CLOUDY    38  33  85 E8        29.79F WCI  32
WHEELING       CLOUDY    35  31  85 NE5       29.83R WCI  31
MORRIS*        LGT RAIN  37  33  85 E13       29.74F WCI  29
ROMEOVILLE*    CLOUDY    37  35  92 SE8       29.80R WCI  30
NORTHERLY ISL    N/A     34  32  92 E8          N/A  WCI  27
$$

LMZ740>746-250200-
SOUTHERN LAKE MICHIGAN

STATION/POSITION SKY/WX   TEMP    WIND        PRES    VSBY  WAVE
                          AIR SEA DIR/SP/G                  HT/PER
                          (F)     (DEG/KT/KT) (MB)    (MI)  (FT/S)
HARRISON CRIB              36      90/ 11/ 11   N/A
BURNHAM HARBOR             34      70/  6/  7   N/A
CALUMET HARBOR             34      70/  8/ 10   N/A
BURNS HARBOR               35      80/  9/ 11 1010.2F
$$

ILZ025>027-034>036-040-047-049-050-058-095>099-250200-
WEST-CENTRAL ILLINOIS

CITY           SKY/WX    TMP DP  RH WIND       PRES   REMARKS
QUINCY         CLEAR     41  35  79 E12       29.61R
GALESBURG*     CLOUDY    37  34  87 E10G22    29.68S WCI  30
MACOMB*        MOCLDY    38  35  90 E14       29.69R WCI  29
JACKSONVILLE*  PTCLDY    40  36  84 E14       29.65S
PITTSFIELD*    CLEAR     42  37  80 E13       29.63S
$$

ILZ028>032-037-038-041>044-048-051>054-059>061-250200-
CENTRAL ILLINOIS

CITY           SKY/WX    TMP DP  RH WIND       PRES   REMARKS
PONTIAC        CLOUDY    38  37  95 E16       29.75F WCI  29
BLOOMINGTON    CLOUDY    38  34  85 SE23G30   29.69F WCI  27
DECATUR        CLOUDY    38  36  92 SE20      29.70F WCI  28
PEORIA         CLOUDY    39  35  86 SE15G24   29.71R WCI  31
LACON*         CLOUDY    38  35  89 E7G20     29.71F WCI  32
LINCOLN*       CLOUDY    39  36  89 SE10G22   29.70R WCI  32
SPRINGFIELD    MOCLDY    42  36  79 SE16G23   29.68R
TAYLORVILLE    CLOUDY    40  36  84 SE16G26   29.66F
$$

ILZ033-039-045-046-055>057-062-063-250200-
EAST-CENTRAL ILLINOIS

CITY           SKY/WX    TMP DP  RH WIND       PRES   REMARKS
CHAMPAIGN      PTCLDY    38  35  89 SE13      29.75F WCI  30
RANTOUL*       PTCLDY    38  36  91 SE10      29.75F WCI  32
MATTOON        CLEAR     38  34  85 SE16      29.73F WCI  29
PARIS*         MOCLDY    39  36  88 SE7       29.80F WCI  34
$$

ILZ079-100>102-250200-
SOUTHWEST ILLINOIS

CITY           SKY/WX    TMP DP  RH WIND       PRES   REMARKS
ALTON          PTCLDY    43  36  75 SE12G20   29.66R
BELLEVILLE     CLEAR     45  37  74 E9        29.65F
CAHOKIA*       CLEAR     47  35  63 SE13      29.65S
SPARTA*        CLEAR     46  36  68 SE13G22   29.68F
$$

ILZ064>066-069>071-074>076-080>082-084>086-088>090-092>094-250200-
SOUTH-CENTRAL ILLINOIS

CITY           SKY/WX    TMP DP  RH WIND       PRES   REMARKS
CARBONDALE     CLEAR     47  36  65 SE8       29.72F
CAIRO*         CLEAR     46  37  70 SE3       29.75R
EFFINGHAM*     MOCLDY    41  37  87 E14       29.76F
MARION         CLEAR     48  36  61 SE7       29.74S
MT. VERNON     CLEAR     43  37  79 E9        29.73F
CENTRALIA*     CLEAR     44  38  80 SE12G21   29.69F
SALEM*         CLEAR     44  37  74 SE10      29.71F
METROPOLIS*    CLEAR     49  36  62 CALM      29.76F
$$

ILZ067-068-072-073-078-083-087-091-250200-
SOUTHEAST ILLINOIS

CITY           SKY/WX    TMP DP  RH WIND       PRES   REMARKS
LAWRENCEVILLE  CLOUDY    41  37  86 SE10      29.81F
FLORA*         CLOUDY    43  37  80 SE12      29.75F
FAIRFIELD*     CLEAR     43  37  79 SE7       29.75F
HARRISBURG*    CLEAR     46  38  76 E13       29.75F
ROBINSON*      CLOUDY    40  35  83 SE8       29.82S
CARMI*         CLEAR     42  38  84 E14       29.76F
$$

ABBREVIATIONS USED IN REMARKS
   TC - TEMPERATURE IN CELSIUS
  WCI - WIND CHILL INDEX
   HX - HEAT INDEX
  VSB - VISIBILITY
$$




USA.gov is the U.S. government's official web portal to all federal, state and local government web resources and services.